Regional Weather Roundup
Issued by NWS Sioux Falls, SD

Home | Current Version | Previous Version | Graphics & Text | Print | Product List | Glossary Off
Versions: 1 2 3 4 5 6 7 8 9 10 11 12 13 14 15 16 17 18 19 20 21 22 23 24 25 26 27 28 29 30 31 32 33 34 35 36 37 38 39 40 41 42 43 44 45 46 47 48 49 50

000
ASUS43 KFSD 231310
RWRFSD

WEATHER ROUNDUP FOR SE SOUTH DAKOTA/SW MINNESOTA/NW IOWA
NATIONAL WEATHER SERVICE SIOUX FALLS SD
800 AM CDT FRI JUN 23 2017

NOTE: "FAIR" INDICATES FEW OR NO CLOUDS BELOW 12,000 FEET WITH NO
SIGNIFICANT WEATHER AND OR OBSTRUCTIONS TO VISIBILITY.


SDZ038>040-050-052>070-231400-
SOUTHEAST SOUTH DAKOTA

CITY           SKY/WX    TMP DP  RH WIND       PRES   REMARKS
BROOKINGS      MOSUNNY   58  51  78 NW21G28   29.93R
CHAMBERLAIN    CLOUDY    59  49  69 W18G26    30.06F
HURON          CLOUDY    59  52  77 NW15      30.00R
MADISON        FAIR      55  54  94 NW20G30   29.96R
MITCHELL       CLOUDY    59  49  69 W15       30.02R
SIOUX FALLS    CLOUDY    58  50  75 NW15G22   29.96R
WINNER         PTSUNNY   60  45  57 NW18G29   30.11S
YANKTON        CLOUDY    60  47  61 NW25G32   30.00R
$$

MNZ071-072-080-081-089-090-097-098-231400-
SOUTHWEST MINNESOTA

CITY           SKY/WX    TMP DP  RH WIND       PRES   REMARKS
FAIRMONT       SUNNY     62  49  62 NW15G22   29.87R
JACKSON        SUNNY     61  50  67 NW15      29.89R
LUVERNE        MOSUNNY   59  46  63 NW17      29.93R
MARSHALL       SUNNY     62  52  69 NW18G26   29.86S
MONTEVIDEO     SUNNY     63  52  67 NW15G23   29.85R
PIPESTONE      MOSUNNY   59  48  67 NW12G21   29.91R
REDWOOD FALLS  SUNNY     61  50  67 NW14G31   29.84R
TRACY          SUNNY     61  52  72 NW18G25   29.89R
WINDOM         SUNNY     61  50  67 W13       29.88R
WORTHINGTON    MOSUNNY   59  50  72 NW16G22   29.91R
$$

IAZ001>003-012>014-020>022-031-032-NEZ013-014-SDZ071-231400-
NORTHWEST IOWA

CITY           SKY/WX    TMP DP  RH WIND       PRES   REMARKS
CHEROKEE       PTSUNNY   61  50  66 N10G20    29.91S
DENISON        MOSUNNY   64  50  59 NW7       29.94R
ESTHERVILLE    SUNNY     60  51  72 NW16G23   29.88R
LE MARS        CLOUDY    61  48  63 NW13G23   29.95R
ORANGE CITY    CLOUDY    59  50  72 NW16G23   29.94R
SHELDON        CLOUDY    59  48  67 NW14      29.91S
SIOUX CITY     CLOUDY    61  48  62 NW18      29.95R
SPENCER        PTSUNNY   60  50  69 NW13      29.90R
STORM LAKE     CLOUDY    59  48  67 NW14      29.91R
$$

ABBREVIATIONS USED IN REMARKS
   TC - TEMPERATURE IN CELSIUS
  WCI - WIND CHILL INDEX
   HX - HEAT INDEX
  VSB - VISIBILITY





USA.gov is the U.S. government's official web portal to all federal, state and local government web resources and services.